PST,Max TemperatureF,Mean TemperatureF,Min TemperatureF,Max Dew PointF,MeanDew PointF,Min DewpointF,Max Humidity, Mean Humidity, Min Humidity, Max Sea Level PressureIn, Mean Sea Level PressureIn, Min Sea Level PressureIn, Max VisibilityMiles, Mean VisibilityMiles, Min VisibilityMiles, Max Wind SpeedMPH, Mean Wind SpeedMPH, Max Gust SpeedMPH,PrecipitationIn, CloudCover, Events, WindDirDegrees
2011-11-1,71,63,55,54,53,51,93,74,55,29.98,29.94,29.89,5,2,2,7,1,10,0.00,4,,270
2011-11-2,82,67,52,53,31,8,93,50,6,30.09,30.03,29.98,10,7,2,8,1,12,0.00,0,,21
2011-11-3,73,63,52,54,38,15,72,44,15,30.05,29.95,29.89,10,10,10,7,1,13,0.00,3,,158
2011-11-4,63,57,51,52,47,34,83,65,46,29.87,29.79,29.73,10,9,2,13,3,21,0.16,6,Rain,280
2011-11-5,63,55,46,44,39,34,82,61,39,30.03,29.97,29.84,10,10,10,9,2,16,0.00,0,,97
2011-11-6,61,55,48,49,44,38,86,71,55,30.06,30.02,29.96,10,7,2,15,3,21,0.36,6,Rain,81
2011-11-7,64,54,44,44,42,39,89,66,43,30.20,30.12,30.03,10,10,10,10,1,15,0.00,0,,142
2011-11-8,69,58,46,43,38,30,76,50,24,30.26,30.22,30.17,10,10,10,8,1,12,0.00,0,,90
2011-11-9,76,61,45,45,30,19,65,39,12,30.25,30.18,30.10,10,10,10,7,1,13,0.00,0,,73
2011-11-10,75,66,56,32,27,20,35,25,15,30.17,30.08,29.99,10,10,10,9,2,15,0.00,0,,20
2011-11-11,72,65,58,40,34,28,43,32,20,29.98,29.89,29.83,10,10,10,10,1,17,T,4,Rain,130
2011-11-12,64,59,54,50,45,32,89,61,32,29.85,29.81,29.78,10,10,5,15,4,24,0.16,7,Rain,96
2011-11-13,72,63,53,51,48,45,83,64,44,29.96,29.89,29.83,10,10,9,8,1,15,0.00,1,,270
2011-11-14,67,59,50,54,51,46,83,73,63,30.01,29.96,29.91,10,10,9,8,1,12,0.00,4,,110
2011-11-15,66,61,55,54,51,49,86,71,56,30.08,30.05,30.00,10,8,5,8,1,14,0.00,5,,280
2011-11-16,67,61,55,54,52,50,93,76,58,30.16,30.11,30.07,8,5,2,8,1,12,0.00,4,,290
2011-11-17,73,62,51,55,51,45,96,68,40,30.11,30.02,29.97,10,6,4,8,1,12,0.00,2,,240
2011-11-18,61,59,56,52,50,48,86,75,64,29.99,29.94,29.91,10,8,3,6,0,9,0.00,8,,160
2011-11-19,63,59,54,52,48,45,86,71,56,29.97,29.93,29.89,10,10,7,7,1,12,0.00,7,,112
2011-11-20,56,54,51,54,49,44,100,83,66,30.01,29.95,29.91,10,6,1,10,3,17,0.90,7,Rain,93
2011-11-21,62,54,46,48,46,44,96,78,60,30.27,30.15,30.02,10,7,1,7,1,12,0.00,2,,60
2011-11-22,69,58,47,51,45,39,89,62,35,30.27,30.19,30.11,10,10,9,5,0,8,0.00,0,,300
2011-11-23,66,57,47,52,47,41,89,67,44,30.09,30.00,29.94,10,10,8,7,1,12,0.00,3,,263
2011-11-24,62,56,50,50,48,45,83,70,56,30.12,30.03,29.97,10,9,6,7,1,10,0.00,5,,122
2011-11-25,66,57,47,51,47,43,93,71,48,30.23,30.17,30.12,10,9,5,7,1,10,0.00,0,,154
2011-11-26,82,64,46,53,42,31,93,56,19,30.28,30.23,30.18,10,10,7,6,0,8,0.00,0,,110
2011-11-27,82,68,54,36,29,21,34,22,10,30.29,30.22,30.17,10,10,10,8,1,10,0.00,0,,25
2011-11-28,81,69,57,44,35,27,57,36,15,30.14,30.09,30.04,10,10,10,6,1,9,0.00,0,,3
2011-11-29,80,68,55,45,41,30,66,41,16,30.08,30.03,29.99,10,10,9,5,0,8,0.00,0,,-1
2011-11-30,69,59,49,54,44,17,93,55,17,30.03,29.89,29.75,10,8,4,17,4,29,0.00,2,,317